Date String (YYYY-MM-DD hh:mm:ss) UTC,Instrument flags,Ambient pressure (hPa),Sample flow (lpm),Bypass flow (lpm),Sample temperature (°C),Ambient temperature (°C),ASC tube jacket temperature (°C),LED temperature (°C),Box temperature (°C),Sample RH (%),Span deviation,Mass concentration (μg/m³),Mass concentration (μg/m³),Mass concentration (μg/m³)
DateTimeUTC,F1_M11,P_M11,Q1_M11,Q2_M11,T1_M11,T2_M11,T3_M11,T4_M11,T5_M11,U1_M11,ZSPAN_M11,X2_M11,X0_M11,X1_M11
2021-09-06 22:00:00,,0826.6,5.01,0.00,28.9,27.0,00.0,37.9,30.6,12.2,0000.7,0015.76,0024.48,0014.82
2021-09-06 22:01:00,,0826.5,5.00,0.00,28.9,27.4,00.0,37.9,30.8,11.6,0001.2,0015.66,0024.93,0014.75
2021-09-06 22:02:00,,0826.6,5.00,0.00,29.0,27.7,00.0,37.9,30.9,12.0,0001.6,0015.55,0024.57,0014.68
2021-09-06 22:03:00,,0826.6,5.00,0.00,29.0,27.5,00.0,37.9,30.8,11.9,0001.7,0015.50,0023.58,0014.62
2021-09-06 22:04:00,,0826.6,5.01,0.00,29.0,26.0,00.0,37.9,30.4,11.8,0001.5,0015.47,0023.14,0014.58
2021-09-06 22:05:00,,0826.6,5.00,0.00,28.8,25.7,00.0,37.9,30.2,11.6,0001.6,0015.34,0022.73,0014.50
2021-09-06 22:06:00,,0826.5,5.01,0.00,28.8,26.2,00.0,37.9,30.4,11.3,0002.2,0015.25,0023.26,0014.45
2021-09-06 22:07:00,,0826.6,5.00,0.00,28.8,26.6,00.0,37.9,30.5,11.3,0002.0,0015.23,0024.29,0014.41
2021-09-06 22:08:00,,0826.5,5.00,0.00,28.9,27.0,00.0,37.9,30.6,11.7,0002.4,0015.20,0023.83,0014.37
2021-09-06 22:09:00,,0826.6,4.99,0.00,28.9,27.4,00.0,37.9,30.7,11.3,0002.2,0015.14,0023.29,0014.32
2021-09-06 22:10:00,,0826.6,5.00,0.00,29.0,27.7,00.0,37.9,30.9,11.6,0002.4,0015.10,0023.15,0014.29
2021-09-06 22:11:00,,0826.6,5.00,0.00,29.0,27.5,00.0,37.9,30.8,11.6,0001.9,0015.07,0023.11,0014.27
2021-09-06 22:12:00,,0826.6,5.00,0.00,28.9,26.0,00.0,37.9,30.4,11.0,0001.8,0015.02,0022.58,0014.25
2021-09-06 22:13:00,,0826.6,5.00,0.00,28.8,25.6,00.0,37.9,30.2,11.4,0001.7,0015.02,0023.30,0014.23
2021-09-06 22:14:00,,0826.5,5.00,0.00,28.8,26.1,00.0,37.9,30.4,11.1,0001.8,0014.98,0023.88,0014.22
2021-09-06 22:15:00,,0826.6,4.99,0.00,28.8,26.6,00.0,37.9,30.5,11.4,0002.0,0014.96,0023.88,0014.20
2021-09-06 22:16:00,,0826.5,5.02,0.00,28.8,27.0,00.0,37.9,30.6,11.6,0002.0,0014.94,0024.98,0014.19
2021-09-06 22:17:00,,0826.5,5.00,0.00,28.9,27.4,00.0,37.9,30.7,12.1,0001.4,0015.00,0024.88,0014.21
2021-09-06 22:18:00,,0826.5,5.00,0.00,29.0,27.7,00.0,37.9,30.9,12.3,0001.8,0015.01,0023.87,0014.20
2021-09-06 22:19:00,,0826.5,4.99,0.00,29.0,27.6,00.0,37.9,30.8,12.3,0001.9,0015.07,0023.81,0014.23
2021-09-06 22:20:00,,0826.5,5.00,0.00,29.0,26.1,00.0,37.9,30.5,12.3,0002.6,0015.14,0023.88,0014.29
2021-09-06 22:21:00,,0826.5,5.00,0.00,28.8,25.7,00.0,37.9,30.3,12.1,0002.3,0015.21,0024.86,0014.38
2021-09-06 22:22:00,,0826.5,5.00,0.00,28.8,26.2,00.0,37.9,30.4,12.5,0002.3,0015.28,0025.39,0014.42
2021-09-06 22:23:00,,0826.5,5.00,0.00,28.8,26.6,00.0,37.9,30.5,12.6,0002.2,0015.35,0025.64,0014.46
2021-09-06 22:24:00,,0826.5,4.99,0.00,28.8,26.9,00.0,37.9,30.6,12.8,0001.9,0015.44,0025.18,0014.52
2021-09-06 22:25:00,,0826.5,5.02,0.00,28.9,27.3,00.0,37.9,30.7,13.0,0001.6,0015.49,0024.91,0014.55
2021-09-06 22:26:00,,0826.5,5.00,0.00,29.0,27.6,00.0,37.9,30.8,12.7,0001.8,0015.51,0026.05,0014.60
2021-09-06 22:27:00,,0826.5,5.00,0.00,29.0,26.7,00.0,37.9,30.6,12.6,0002.0,0015.56,0026.14,0014.65
2021-09-06 22:28:00,,0826.5,4.99,0.00,28.8,25.5,00.0,37.9,30.2,12.6,0002.5,0015.57,0026.04,0014.67
2021-09-06 22:29:00,,0826.5,5.00,0.00,28.8,25.9,00.0,37.9,30.3,12.7,0002.7,0015.61,0025.90,0014.74
2021-09-06 22:30:00,,0826.5,5.00,0.00,28.8,26.3,00.0,37.8,30.4,12.2,0002.7,0015.66,0025.88,0014.79
2021-09-06 22:31:00,,0826.5,4.99,0.00,28.8,26.7,00.0,37.8,30.5,12.3,0002.3,0015.75,0026.28,0014.83
2021-09-06 22:32:00,,0826.5,4.98,0.00,28.8,27.1,00.0,37.8,30.7,12.1,0002.6,0015.77,0026.34,0014.84
2021-09-06 22:33:00,,0826.5,5.00,0.00,28.9,27.5,00.0,37.8,30.8,12.1,0002.8,0015.77,0025.99,0014.86
2021-09-06 22:34:00,,0826.5,4.99,0.00,29.0,27.8,00.0,37.9,30.9,12.0,0003.0,0015.81,0026.48,0014.89
2021-09-06 22:35:00,,0826.5,5.01,0.00,29.0,27.6,00.0,37.9,30.9,12.0,0003.0,0015.84,0027.80,0014.92
2021-09-06 22:36:00,,0826.5,5.01,0.00,29.0,26.1,00.0,37.9,30.4,11.9,0003.7,0015.89,0028.99,0014.94
2021-09-06 22:37:00,,0826.5,5.00,0.00,28.8,25.7,00.0,37.9,30.3,12.0,0003.5,0015.93,0028.09,0014.96
2021-09-06 22:38:00,,0826.5,4.99,0.00,28.8,26.2,00.0,37.9,30.4,12.4,0003.8,0015.99,0027.02,0014.98
2021-09-06 22:39:00,,0826.5,5.01,0.00,28.8,26.6,00.0,37.8,30.5,12.9,0003.4,0016.10,0027.16,0015.04
2021-09-06 22:40:00,,0826.5,5.00,0.00,28.8,27.0,00.0,37.8,30.6,12.6,0003.3,0016.15,0027.18,0015.07
2021-09-06 22:41:00,,0826.5,4.99,0.00,28.9,27.4,00.0,37.9,30.7,12.6,0003.2,0016.14,0027.32,0015.06
2021-09-06 22:42:00,,0826.5,5.00,0.00,29.0,27.7,00.0,37.9,30.9,12.9,0003.1,0016.08,0027.15,0015.04
2021-09-06 22:43:00,,0826.5,5.01,0.00,29.0,27.6,00.0,37.9,30.8,12.4,0003.2,0016.06,0026.79,0015.02
2021-09-06 22:44:00,,0826.5,5.00,0.00,28.9,26.1,00.0,37.9,30.4,12.7,0002.9,0016.08,0026.45,0015.02
2021-09-06 22:45:00,,0826.5,5.00,0.00,28.8,25.7,00.0,37.9,30.3,12.6,0002.5,0016.08,0025.75,0015.06
2021-09-06 22:46:00,,0826.5,5.00,0.00,28.8,26.2,00.0,37.9,30.4,12.3,0002.2,0016.08,0024.33,0015.06
2021-09-06 22:47:00,,0826.5,5.00,0.00,28.8,26.6,00.0,37.9,30.5,12.3,0001.8,0016.09,0023.28,0015.08
2021-09-06 22:48:00,,0826.5,5.00,0.00,28.8,27.1,00.0,37.9,30.6,12.7,0001.0,0016.10,0023.24,0015.09
2021-09-06 22:49:00,,0826.6,4.99,0.00,28.9,27.5,00.0,37.9,30.8,12.7,0000.3,0016.09,0022.87,0015.09
2021-09-06 22:50:00,,0826.5,5.00,0.00,29.0,27.8,00.0,37.9,30.9,12.4,0000.1,0016.08,0022.42,0015.07
2021-09-06 22:51:00,,0826.5,5.02,0.00,29.0,27.6,00.0,37.9,30.8,12.2,-000.4,0016.08,0022.40,0015.06
2021-09-06 22:52:00,,0826.5,5.00,0.00,28.9,26.1,00.0,37.9,30.4,12.4,-000.4,0016.12,0022.51,0015.06
2021-09-06 22:53:00,,0826.5,5.01,0.00,28.8,25.7,00.0,37.9,30.2,12.4,-000.2,0016.15,0023.40,0015.06
2021-09-06 22:54:00,,0826.5,4.99,0.00,28.8,26.2,00.0,37.9,30.4,12.4,-000.2,0016.17,0023.62,0015.08
2021-09-06 22:55:00,,0826.5,5.01,0.00,28.8,26.6,00.0,37.9,30.5,12.3,-000.4,0016.15,0023.59,0015.06
2021-09-06 22:56:00,,0826.5,5.00,0.00,28.8,27.0,00.0,37.9,30.6,12.2,-000.7,0016.13,0024.36,0015.02
2021-09-06 22:57:00,,0826.5,4.99,0.00,28.9,27.4,00.0,37.9,30.7,12.4,-000.3,0016.11,0024.95,0015.01
2021-09-06 22:58:00,,0826.5,5.01,0.00,29.0,27.7,00.0,37.9,30.9,12.3,-000.4,0016.08,0025.05,0014.98
2021-09-06 22:59:00,,0826.5,5.01,0.00,29.0,27.6,00.0,37.9,30.8,12.5,0000.1,0016.05,0025.04,0014.97
